Date String (YYYY-MM-DD hh:mm:ss) UTC,Instrument flags,Ambient pressure (hPa),Sample flow (lpm),Bypass flow (lpm),Sample temperature (°C),Ambient temperature (°C),ASC tube jacket temperature (°C),LED temperature (°C),Box temperature (°C),Sample RH (%),Span deviation,Mass concentration (μg/m³),Mass concentration (μg/m³),Mass concentration (μg/m³)
DateTimeUTC,F1_M11,P_M11,Q1_M11,Q2_M11,T1_M11,T2_M11,T3_M11,T4_M11,T5_M11,U1_M11,ZSPAN_M11,X0_M11,X2_M11,X1_M11
2021-10-06 22:00:00,,0824.2,5.00,0.00,29.6,28.8,00.0,38.5,31.5,18.2,0001.3,0019.76,0006.95,0005.23
2021-10-06 22:01:00,,0824.2,5.01,0.00,29.6,28.9,00.0,38.6,31.6,18.2,0001.6,0020.60,0007.00,0005.27
2021-10-06 22:02:00,,0824.5,4.99,0.00,29.7,29.0,00.0,38.6,31.6,18.1,0002.1,0020.90,0006.94,0005.32
2021-10-06 22:03:00,,0824.3,5.00,0.00,29.7,29.1,00.0,38.6,31.7,18.1,0002.6,0021.09,0006.87,0005.31
2021-10-06 22:04:00,,0824.3,5.01,0.00,29.7,27.9,00.0,38.6,31.4,18.3,0002.7,0020.97,0006.84,0005.31
2021-10-06 22:05:00,,0824.3,5.00,0.00,29.6,25.9,00.0,38.6,30.9,18.6,0003.0,0021.89,0006.91,0005.33
2021-10-06 22:06:00,,0824.3,5.00,0.00,29.4,25.6,00.0,38.6,30.8,18.7,0003.1,0021.81,0006.91,0005.33
2021-10-06 22:07:00,,0824.3,4.99,0.00,29.4,26.1,00.0,38.6,30.8,19.0,0003.4,0021.53,0006.90,0005.33
2021-10-06 22:08:00,,0824.3,5.01,0.00,29.3,26.6,00.0,38.5,30.9,18.7,0003.4,0021.21,0006.94,0005.34
2021-10-06 22:09:00,,0824.3,5.00,0.00,29.3,27.0,00.0,38.5,31.0,18.9,0003.4,0019.55,0006.89,0005.33
2021-10-06 22:10:00,,0824.3,5.00,0.00,29.3,27.5,00.0,38.5,31.1,18.8,0003.3,0018.87,0006.81,0005.32
2021-10-06 22:11:00,,0824.3,5.00,0.00,29.4,27.8,00.0,38.5,31.2,18.8,0003.5,0019.70,0006.81,0005.30
2021-10-06 22:12:00,,0824.3,5.01,0.00,29.4,28.0,00.0,38.5,31.2,18.7,0003.4,0018.79,0006.74,0005.24
2021-10-06 22:13:00,,0824.3,5.00,0.00,29.5,28.3,00.0,38.5,31.3,18.7,0003.5,0018.64,0006.66,0005.14
2021-10-06 22:14:00,,0824.3,5.00,0.00,29.5,28.4,00.0,38.5,31.4,19.0,0003.2,0018.42,0006.62,0005.06
2021-10-06 22:15:00,,0824.3,4.99,0.00,29.5,28.6,00.0,38.5,31.4,19.3,0002.8,0019.38,0006.60,0005.02
2021-10-06 22:16:00,,0824.4,5.00,0.00,29.6,28.7,00.0,38.5,31.5,19.3,0002.6,0020.62,0006.60,0004.96
2021-10-06 22:17:00,,0824.4,5.00,0.00,29.6,28.8,00.0,38.5,31.5,18.7,0002.5,0020.82,0006.55,0004.89
2021-10-06 22:18:00,,0824.4,5.00,0.00,29.7,28.9,00.0,38.6,31.6,18.7,0002.2,0021.72,0006.50,0004.84
2021-10-06 22:19:00,,0824.3,4.99,0.00,29.7,29.0,00.0,38.6,31.7,18.5,0001.9,0024.46,0006.48,0004.80
2021-10-06 22:20:00,,0824.3,5.02,0.00,29.7,27.9,00.0,38.6,31.4,18.6,0001.7,0026.11,0006.52,0004.79
2021-10-06 22:21:00,,0824.3,5.01,0.00,29.6,26.0,00.0,38.6,30.9,18.8,0002.2,0026.67,0006.60,0004.80
2021-10-06 22:22:00,,0824.3,4.99,0.00,29.4,25.7,00.0,38.6,30.8,19.0,0001.1,0026.57,0006.58,0004.79
2021-10-06 22:23:00,,0824.3,5.00,0.00,29.4,26.1,00.0,38.5,30.8,19.3,0001.7,0027.00,0006.55,0004.77
2021-10-06 22:24:00,,0824.3,4.99,0.00,29.3,26.6,00.0,38.5,30.9,19.1,0001.1,0027.71,0006.53,0004.77
2021-10-06 22:25:00,,0824.2,5.02,0.00,29.3,27.0,00.0,38.5,31.0,19.2,0000.8,0028.97,0006.58,0004.76
2021-10-06 22:26:00,,0824.2,5.00,0.00,29.3,27.4,00.0,38.4,31.1,19.3,0000.0,0028.08,0006.61,0004.75
2021-10-06 22:27:00,,0824.2,5.01,0.00,29.4,27.8,00.0,38.4,31.1,19.3,0000.0,0026.85,0006.56,0004.73
2021-10-06 22:28:00,,0824.2,4.99,0.00,29.4,28.0,00.0,38.4,31.2,19.3,0000.0,0026.53,0006.51,0004.74
2021-10-06 22:29:00,,0824.2,5.00,0.00,29.4,28.2,00.0,38.5,31.3,19.3,0000.0,0027.17,0006.57,0004.74
2021-10-06 22:30:00,,0824.2,5.02,0.00,29.5,28.4,00.0,38.5,31.3,19.5,0001.5,0026.38,0006.62,0004.74
2021-10-06 22:31:00,,0824.2,4.99,0.00,29.5,28.6,00.0,38.5,31.4,19.2,0001.5,0027.24,0006.65,0004.72
2021-10-06 22:32:00,,0824.2,5.02,0.00,29.6,28.7,00.0,38.5,31.5,19.1,0001.2,0027.51,0006.67,0004.72
2021-10-06 22:33:00,,0824.2,4.99,0.00,29.6,28.8,00.0,38.5,31.5,19.0,0000.7,0026.57,0006.64,0004.73
2021-10-06 22:34:00,,0824.1,5.00,0.00,29.7,28.9,00.0,38.6,31.6,18.9,0000.2,0026.39,0006.66,0004.72
2021-10-06 22:35:00,,0824.2,4.99,0.00,29.7,29.0,00.0,38.6,31.6,18.9,0000.5,0026.51,0006.68,0004.72
2021-10-06 22:36:00,,0824.2,5.00,0.00,29.8,29.1,00.0,38.6,31.7,18.8,0000.8,0025.97,0006.64,0004.72
2021-10-06 22:37:00,,0824.2,5.01,0.00,29.8,28.9,00.0,38.7,31.7,18.6,0000.7,0026.29,0006.57,0004.72
2021-10-06 22:38:00,,0824.2,5.00,0.00,29.7,27.0,00.0,38.7,31.1,18.8,0000.9,0026.27,0006.55,0004.73
2021-10-06 22:39:00,,0824.2,5.00,0.00,29.5,25.6,00.0,38.6,30.7,19.1,0001.6,0026.94,0006.58,0004.73
2021-10-06 22:40:00,,0824.2,5.01,0.00,29.4,25.8,00.0,38.6,30.8,19.1,0001.8,0028.11,0006.51,0004.72
2021-10-06 22:41:00,,0824.3,4.99,0.00,29.3,26.2,00.0,38.5,30.9,19.0,0001.3,0026.61,0006.42,0004.69
2021-10-06 22:42:00,,0824.2,5.01,0.00,29.3,26.7,00.0,38.5,30.9,19.0,0001.5,0025.72,0006.37,0004.67
2021-10-06 22:43:00,,0824.2,4.99,0.00,29.3,27.2,00.0,38.5,31.0,18.9,0001.8,0025.98,0006.35,0004.66
2021-10-06 22:44:00,,0824.2,5.00,0.00,29.4,27.6,00.0,38.5,31.1,18.9,0002.4,0027.79,0006.37,0004.63
2021-10-06 22:45:00,,0824.3,5.00,0.00,29.4,27.9,00.0,38.5,31.2,19.0,0002.5,0028.74,0006.37,0004.62
2021-10-06 22:46:00,,0824.3,5.01,0.00,29.4,28.1,00.0,38.5,31.3,19.1,0002.5,0028.34,0006.39,0004.60
2021-10-06 22:47:00,,0824.2,5.01,0.00,29.5,28.3,00.0,38.5,31.3,19.0,0002.3,0027.04,0006.38,0004.58
2021-10-06 22:48:00,,0824.2,5.00,0.00,29.5,28.5,00.0,38.5,31.4,18.7,0002.2,0026.41,0006.39,0004.57
2021-10-06 22:49:00,,0824.2,4.99,0.00,29.6,28.7,00.0,38.5,31.5,18.5,0002.3,0026.99,0006.41,0004.55
2021-10-06 22:50:00,,0824.2,5.01,0.00,29.6,28.8,00.0,38.5,31.5,18.6,0002.3,0027.31,0006.37,0004.54
2021-10-06 22:51:00,,0824.3,5.00,0.00,29.7,28.9,00.0,38.6,31.6,18.7,0001.9,0025.82,0006.37,0004.54
2021-10-06 22:52:00,,0824.2,4.99,0.00,29.7,29.0,00.0,38.6,31.6,18.5,0002.0,0026.11,0006.39,0004.55
2021-10-06 22:53:00,,0824.2,5.01,0.00,29.8,29.1,00.0,38.6,31.7,18.3,0001.8,0026.22,0006.35,0004.56
2021-10-06 22:54:00,,0824.2,5.00,0.00,29.8,28.9,00.0,38.7,31.7,18.4,0001.2,0026.10,0006.30,0004.55
2021-10-06 22:55:00,,0824.3,5.00,0.00,29.7,27.2,00.0,38.7,31.3,18.4,0000.8,0026.06,0006.25,0004.56
2021-10-06 22:56:00,,0824.2,5.00,0.00,29.5,25.7,00.0,38.6,30.8,18.8,0000.6,0025.98,0006.19,0004.56
2021-10-06 22:57:00,,0824.2,4.99,0.00,29.4,25.8,00.0,38.6,30.8,18.9,0000.5,0025.61,0006.16,0004.57
2021-10-06 22:58:00,,0824.3,5.01,0.00,29.4,26.3,00.0,38.6,30.9,18.6,0001.0,0025.67,0006.15,0004.56
2021-10-06 22:59:00,,0824.3,5.00,0.00,29.4,26.7,00.0,38.5,31.0,18.7,0001.1,0026.79,0006.15,0004.56
